Regional Weather Roundup
Issued by NWS

Home | Current Version | Previous Version | Graphics & Text | Print | Product List | Glossary Off
Versions: 1 2 3 4 5 6 7 8 9 10 11 12 13 14 15 16 17 18 19 20 21 22 23 24 25 26 27 28 29 30 31 32 33 34 35 36 37 38 39 40 41 42 43 44 45 46 47 48 49 50

000
ASUS43 KTOP 030208
RWRKS

WEATHER ROUNDUP FOR KANSAS
NATIONAL WEATHER SERVICE GOODLAND KS
900 PM CDT SAT MAY 02 2015

NOTE:  "FAIR" INDICATES FEW OR NO CLOUDS BELOW 12,000 FEET WITH NO
SIGNIFICANT WEATHER AND/OR OBSTRUCTIONS TO VISIBILITY.

KSZ001>006-013>018-027>032-041>047-030300-
NORTHWEST KANSAS

CITY           SKY/WX    TMP DP  RH WIND       PRES   REMARKS
GOODLAND       CLOUDY    67  51  56 S9        29.82R
HAYS           MOCLDY    77  46  33 S21G32    29.77R
HILL CITY      CLOUDY    69  54  58 CALM      29.74S
RUSSELL        MOCLDY    76  51  41 S18G28    29.76R
$$

KSZ061>065-074>080-084>089-030300-
SOUTHWEST KANSAS

CITY           SKY/WX    TMP DP  RH WIND       PRES   REMARKS
DODGE CITY     MOCLDY    74  46  36 S21G28    29.81R
ELKHART          N/A     73  38  28 W3          N/A
GARDEN CITY    CLOUDY    71  42  35 S10       29.79R
GREAT BEND     MOCLDY    73  52  46 S18       29.80R
LIBERAL        CLOUDY    72  45  37 S9        29.84R
PRATT          MOCLDY    73  46  38 S15       29.85S
$$

KSZ066>073-081>083-090>101-030300-
SOUTHEAST KANSAS

CITY           SKY/WX    TMP DP  RH WIND       PRES   REMARKS
CHANUTE        CLEAR     67  55  65 S10       29.92R
COFFEYVILLE    LGT RAIN  68  54  60 SE8       29.92R
HUTCHINSON     MOCLDY    73  55  53 S16       29.84S
MEDICINE LODGE   N/A     72  54  53 S9        29.84S
NEWTON         PTCLDY    68  52  56 S12       29.89R
PARSONS        CLEAR     70  55  59 S5        29.93R
WICHITA INTL   PTCLDY    72  53  51 S13       29.87R
WICHITA JABRA  PTCLDY    72  53  51 S12       29.87R
WICHITA MCCONL PTCLDY    73  54  52 S15       29.88R
WINFIELD       CLEAR     70  54  56 S10       29.90R
$$

KSZ007>012-019>026-033>040-048>060-102>105-030300-
NORTHEAST KANSAS

CITY           SKY/WX    TMP DP  RH WIND       PRES   REMARKS
CONCORDIA      MOCLDY    74  54  49 S20       29.77S
EMPORIA        CLEAR     69  53  56 S10       29.88R
LAWRENCE       CLEAR     66  52  60 SE8       29.88S
MANHATTAN      PTCLDY    74  52  46 S10       29.82R
MARYSVILLE     PTCLDY    72  52  49 S12       29.80R
OLATHE IND     CLEAR     66  53  63 S8        29.91R
OLATHE EXE     CLEAR     66  53  63 SE7       29.90R
SALINA         PTCLDY    75  55  49 S14       29.80S
TOPEKA BILLARD CLEAR     70  53  54 SE9       29.87R
TOPEKA FORBES  PTCLDY    71  53  52 S9        29.86S
$$



USA.gov is the U.S. government's official web portal to all federal, state and local government web resources and services.